TFFRTNCM

Guest
Details From TFFR - Pointe a Pitre Le Raizet
To TNCM - St Maarten - Princess Juliana Intl
Flight Number -
Tags decoded
Created
Modified
Stats Distance 143 nm / 264 km
Max Altitude 0 ft / 0 m
Waypoints 5
Social Downloads 17
Likes 0
Share VATSIM

Download

Looking for another format? Having issues loading an existing format? Contact us
Advertisement - Login to hide

Notes

Requested: TFFR BIMBO A517 TIKAL TNCM

Route

TFFR BIMBO A517 TIKAL TNCM

ID Type Via Altitude (ft/m) Position (lat/lon) Dist (leg/tot) Name
O TFFR APT - 0 / 0 16.26531 / -61.53181 - / 0 nm Pointe a Pitre Le Raizet
BIMBO FIX - 0 / 0 16.62667 / -61.96028 32 / 32 nm
SKB NDB A517 (AWY-LO) 0 / 0 17.29597 / -62.74328 60 / 93 nm BRADSHAW NDB
TIKAL FIX A517 (AWY-LO) 0 / 0 17.47381 / -62.81800 11 / 104 nm
O TNCM APT - 0 / 0 18.04089 / -63.10897 37 / 142 nm St Maarten - Princess Juliana Intl

Altitude Profile

Advertisement - Login to hide

TFFR

Details ICAO TFFR (PTP)
Name Point a Pitre - Le Raizet
Region France (Guadeloupe, Martinique, Saint Barthélemy, Saint Martin)
Timezone America/Guadeloupe (UTC-4.0)
Stats Elevation 35 ft / 11 m (AMSL)
Location 16.265500° -61.533000°
Runways 1
Magnetic Variation 14.889° W

METAR

TFFR 220630Z AUTO VRB03KT 9999 SCT024 OVC068 23/21 Q1014 NOSIG

Decode

TAF

TAF TFFR 220500Z 2206/2306 VRB02KT 9999 SCT030 SCT050 BECMG 2210/2212 08010KT PROB30 TEMPO 2303/2306 4000 SHRA SCT018TCU

Decode

Departure Runways

ID Width Length Bearing (true/mag) Surface Threshold Overrun Markings Lighting
12 148 ft / 45 m 10,673 ft / 3,253 m 100.95° / 115.84° ASPHALT 1,302 ft / 397 m 0 ft / 0 m PREC-APP EDGE THRESHOLD ALSF-I TDZ
30 148 ft / 45 m 10,673 ft / 3,253 m 280.96° / 295.85° ASPHALT 978 ft / 298 m 820 ft / 250 m PREC-APP EDGE THRESHOLD ALSF-I TDZ

TNCM

Details ICAO TNCM (SXM)
Name Princess Juliana Intl
Region Caribbean Netherlands, Aruba, Curaçao, Sint Maarten
Timezone Unknown
Stats Elevation 14 ft / 4 m (AMSL)
Location 18.040900° -63.108900°
Runways 1
Magnetic Variation 14.360° W

METAR

TNCM 220600Z 10011KT 060V140 9999 SCT016 25/21 Q1015 A2998

Decode

TAF

TAF TNCM 220540Z 2206/2306 09010KT P6SM VCSH SCT018 BKN040 FM221330 11014KT P6SM FEW024 SCT050 FM222200 09008KT P6SM FEW020 SCT035

Decode

Destination Runways

ID Width Length Bearing (true/mag) Surface Threshold Overrun Markings Lighting
10 148 ft / 45 m 7,553 ft / 2,302 m 81.44° / 95.80° ASPHALT 331 ft / 101 m 164 ft / 50 m PREC-APP EDGE THRESHOLD REIL-OMNI
28 148 ft / 45 m 7,553 ft / 2,302 m 261.45° / 275.81° ASPHALT 0 ft / 0 m 200 ft / 61 m APP EDGE THRESHOLD

Popular Alternatives